This is the latest recevied weather packets stored in our database for station/object KB3AWQ. If no packets are shown the sender has not sent any weather packets the latest 10 day(s).
| Time | Temp. | Humidity | Pressure | Rain* | Wind** | Luminosity | Snow |
|---|---|---|---|---|---|---|---|
| 1777753466 | 11.67° C | 55% | 1012.8 hPa | 0 mm | - | 277 W/m² | - |
| 1777753166 | 11.67° C | 55% | 1012.9 hPa | 0 mm | - | 286 W/m² | - |
| 1777752866 | 11.67° C | 56% | 1012.9 hPa | 0 mm | - | 243 W/m² | - |
| 1777752567 | 11.67° C | 57% | 1012.8 hPa | 0 mm | - | 173 W/m² | - |
| 1777752267 | 11.67° C | 56% | 1012.9 hPa | 0 mm | - | 142 W/m² | - |
| 1777751966 | 12.22° C | 52% | 1012.8 hPa | 0 mm | - | 171 W/m² | - |
| 1777751667 | 12.22° C | 52% | 1012.8 hPa | 0 mm | - | 227 W/m² | - |
| 1777751366 | 12.78° C | 51% | 1012.9 hPa | 0 mm | - | 299 W/m² | - |
| 1777751066 | 12.78° C | 49% | 1013 hPa | 0 mm | - | 837 W/m² | - |
| 1777750766 | 12.22° C | 51% | 1013 hPa | 0 mm | - | 463 W/m² | - |
| 1777750466 | 12.22° C | 55% | 1013.2 hPa | 0 mm | - | 456 W/m² | - |
| 1777750166 | 11.67° C | 54% | 1013.2 hPa | 0 mm | - | 380 W/m² | - |
| 1777749866 | 11.67° C | 53% | 1013.4 hPa | 0 mm | - | 601 W/m² | - |
| 1777749566 | 11.67° C | 53% | 1013.4 hPa | 0 mm | - | 363 W/m² | - |
| 1777749266 | 11.67° C | 53% | 1013.5 hPa | 0 mm | - | 298 W/m² | - |
| 1777748967 | 11.67° C | 53% | 1013.5 hPa | 0 mm | - | 175 W/m² | - |
| 1777748667 | 11.67° C | 53% | 1013.7 hPa | 0 mm | - | 129 W/m² | - |
| 1777748366 | 11.67° C | 51% | 1013.7 hPa | 0 mm | - | 115 W/m² | - |
| 1777748066 | 11.67° C | 53% | 1013.7 hPa | 0 mm | - | 117 W/m² | - |
| 1777747767 | 11.67° C | 52% | 1013.7 hPa | 0 mm | - | 115 W/m² | - |
| 1777747466 | 11.67° C | 51% | 1013.7 hPa | 0 mm | - | 109 W/m² | - |
| 1777747167 | 11.67° C | 51% | 1013.7 hPa | 0 mm | - | 150 W/m² | - |
| 1777746867 | 11.67° C | 49% | 1013.5 hPa | 0 mm | - | 258 W/m² | - |
| 1777746566 | 11.67° C | 50% | 1013.5 hPa | 0 mm | - | 604 W/m² | - |
| 1777746266 | 11.67° C | 49% | 1013.5 hPa | 0 mm | - | 553 W/m² | - |
* Rain latest hour (hover to see other rain measurements)
** Current wind speed in m/s (hover to see current wind gust speed)